Luqa, Malta

9:38 PM CET on December 06, 2019 (GMT +0100)
Luqa

Weather History for LMML - November, 2019

Change the Weather History Date:

Tuesday, November 19, 2019

  Actual Average Record
Temperature  
Mean Temperature 59 °F -  
Max Temperature 63 °F 64 °F 71 °F (2001)
Min Temperature 55 °F 54 °F 51 °F (1997)
Degree Days  
Heating Degree Days 6    
Growing Degree Days 9 (Base 50)    
Moisture  
Dew Point 55 °F    
Average Humidity 86    
Maximum Humidity 100    
Minimum Humidity 50    
Precipitation  
Precipitation 0.55 in 0.13 in - ()
Sea Level Pressure  
Sea Level Pressure 29.99 in    
Wind  
Wind Speed 6 mph ()    
Max Wind Speed 17 mph    
Max Gust Speed -    
Visibility 6.4 miles    
Events Rain , Thunderstorm    
Averages and records for this station are not official NWS values.
T = Trace of Precipitation, MM = Missing Value Source: Averaged Metar Reports

Daily Weather History Graph

Daily Weather History Graph

Search for Another Location

Airport or City:

Astronomy

Nov. 19, 2019 Rise Set
Actual Time 6:41 AM CET 4:52 PM CET
Civil Twilight 6:14 AM CET 5:20 PM CET
Nautical Twilight 5:43 AM CET 5:51 PM CET
Astronomical Twilight 5:12 AM CET 6:21 PM CET
Moon 11:26 PM CET (11/19) 12:42 PM CET (11/19)
Length of Visible Light 11h 05m
Length of Day
10h 10m
Waning Gibbous, 55% of the Moon is Illuminated
Nov 19
Waning Gibbous
Nov 19
Last Quarter
Nov 26
New
Dec 4
First Quarter
Dec 12
Full

Hourly Weather History & Observations

Time (CET) Temp. Dew Point Humidity Pressure Visibility Wind Dir Wind Speed Gust Speed Precip Events Conditions
12:15 AM 60.8 °F 51.8 °F 72% 30.04 in 6.2 mi South 5.8 mph - N/A   Partly Cloudy
12:45 AM 60.8 °F 50.0 °F 68% 30.04 in 6.2 mi SSW 6.9 mph - N/A   Partly Cloudy
1:00 AM 62 °F 48 °F 50% 30.06 in 9 mi South 6.9 mph - -  
1:45 AM 62.6 °F 46.4 °F 55% 30.04 in 6.2 mi SSW 9.2 mph - N/A   Partly Cloudy
2:45 AM 62.6 °F 48.2 °F 59% 30.04 in 6.2 mi SSW 5.8 mph - N/A   Partly Cloudy
3:15 AM 59.0 °F 48.2 °F 67% 30.04 in 6.2 mi SSE 8.1 mph - N/A   Partly Cloudy
3:45 AM 57.2 °F 48.2 °F 72% 30.01 in 6.2 mi SSE 5.8 mph - N/A   Partly Cloudy
4:00 AM 56 °F 49 °F 71% 30.02 in 7 mi SE 5.8 mph - -   Scattered Clouds
4:15 AM 59.0 °F 51.8 °F 77% 30.01 in 6.2 mi SE 4.6 mph - N/A   Partly Cloudy
4:45 AM 57.2 °F 50.0 °F 77% 30.01 in 6.2 mi SE 4.6 mph - N/A   Partly Cloudy
5:45 AM 62.6 °F 55.4 °F 77% 30.01 in 6.2 mi SSE 11.5 mph - N/A   Scattered Clouds
6:45 AM 60.8 °F 55.4 °F 82% 30.01 in 6.2 mi SSE 16.1 mph - N/A Rain Light Rain
7:00 AM 61 °F 55 °F 75% 30.01 in 6 mi SSE 11.5 mph - - Rain Light Rain
7:15 AM 60.8 °F 55.4 °F 82% 30.01 in 6.2 mi SSE 12.7 mph - N/A   Partly Cloudy
7:45 AM 60.8 °F 55.4 °F 82% 30.01 in 6.2 mi SE 12.7 mph - N/A   Partly Cloudy
8:15 AM 60.8 °F 57.2 °F 88% 30.01 in 6.2 mi SSE 10.4 mph - N/A Rain Light Rain
8:45 AM 60.8 °F 59.0 °F 94% 30.01 in 6.2 mi SSE 17.3 mph - N/A Rain Rain
9:45 AM 59.0 °F 59.0 °F 100% 30.01 in 6.2 mi SSE 6.9 mph - N/A   Mostly Cloudy
10:00 AM 60 °F 59 °F 96% 30.01 in 15 mi ESE 5.8 mph - - Rain Light Rain
10:15 AM 60.8 °F 59.0 °F 94% 30.01 in 6.2 mi SE 4.6 mph - N/A   Mostly Cloudy
10:45 AM 62.6 °F 60.8 °F 94% 30.01 in 6.2 mi SE 5.8 mph - N/A Thunderstorm Mostly Cloudy
11:15 AM 62.6 °F 59.0 °F 88% 29.98 in 4.3 mi NNE 8.1 mph - N/A Rain , Thunderstorm Light Thunderstorms and Rain
11:45 AM 57.2 °F 55.4 °F 94% 29.98 in 6.2 mi South 9.2 mph - N/A Rain , Thunderstorm Thunderstorms and Rain
12:01 PM 57.2 °F 55.4 °F 94% 29.98 in 6.2 mi West 4.6 mph - N/A   Mostly Cloudy
12:45 PM 59.0 °F 57.2 °F 94% 29.95 in 6.2 mi North 3.5 mph - N/A   Mostly Cloudy
1:00 PM 60 °F 58 °F 90% 29.96 in 6 mi WNW 1.2 mph - - Thunderstorm Thunderstorm
1:15 PM 60.8 °F 57.2 °F 88% 29.95 in 3.7 mi Variable 1.2 mph - N/A Rain , Thunderstorm Light Thunderstorms and Rain
1:45 PM 59.0 °F 57.2 °F 94% 29.95 in 6.2 mi NNW 8.1 mph - N/A Thunderstorm Mostly Cloudy
2:15 PM 59.0 °F 57.2 °F 94% 29.92 in 6.2 mi SSE 5.8 mph - N/A Thunderstorm Thunderstorm
2:45 PM 60.8 °F 57.2 °F 88% 29.92 in 5.0 mi Variable 5.8 mph - N/A Rain , Thunderstorm Thunderstorms and Rain
4:00 PM 61 °F 57 °F 84% 29.94 in 7 mi ESE 4.6 mph - -   Partly Cloudy
4:15 PM 60.8 °F 57.2 °F 88% 29.92 in 6.2 mi ENE 9.2 mph - N/A   Scattered Clouds
4:45 PM 60.8 °F 57.2 °F 88% 29.92 in 6.2 mi East 5.8 mph - N/A   Partly Cloudy
5:15 PM 59.0 °F 57.2 °F 94% 29.92 in 6.2 mi Variable 1.2 mph - N/A   Partly Cloudy
5:45 PM 59.0 °F 55.4 °F 88% 29.92 in 6.2 mi West 2.3 mph - N/A   Partly Cloudy
6:15 PM 57.2 °F 55.4 °F 94% 29.95 in 6.2 mi West 3.5 mph - N/A   Partly Cloudy
7:00 PM 57 °F 55 °F 91% 29.97 in 7 mi South 1.2 mph - -   Partly Cloudy
7:15 PM 55.4 °F 53.6 °F 94% 29.95 in 6.2 mi SE 3.5 mph - N/A   Partly Cloudy
8:15 PM 55.4 °F 55.4 °F 100% 29.98 in 6.2 mi Variable 1.2 mph - N/A   Scattered Clouds
8:45 PM 55.4 °F 55.4 °F 100% 29.98 in 6.2 mi SSW 2.3 mph - N/A   Scattered Clouds
9:15 PM 57.2 °F 55.4 °F 94% 29.98 in 6.2 mi South 2.3 mph - N/A   Scattered Clouds
9:45 PM 55.4 °F 55.4 °F 100% 29.98 in 6.2 mi SSW 3.5 mph - N/A   Scattered Clouds
10:00 PM 55 °F 55 °F 98% 29.99 in 7 mi West 4.6 mph - -   Mostly Cloudy
10:45 PM 55.4 °F 53.6 °F 94% 29.98 in 6.2 mi WNW 6.9 mph - N/A   Partly Cloudy
11:15 PM 55.4 °F 51.8 °F 88% 29.98 in 6.2 mi WNW 8.1 mph - N/A   Partly Cloudy
11:45 PM 55.4 °F 50.0 °F 82% 29.98 in 6.2 mi WNW 8.1 mph - N/A   Partly Cloudy